#	Date Time	Temp �C 
1	4/29/2014 18:45	25.416
2	4/29/2014 19:00	25.708
3	4/29/2014 19:15	25.125
4	4/29/2014 19:30	24.931
5	4/29/2014 19:45	24.835
6	4/29/2014 20:00	24.641
7	4/29/2014 20:15	24.545
8	4/29/2014 20:30	24.448
9	4/29/2014 20:45	24.255
10	4/29/2014 21:00	24.158
11	4/29/2014 21:15	24.062
12	4/29/2014 21:30	23.966
13	4/29/2014 21:45	23.869
14	4/29/2014 22:00	23.773
15	4/29/2014 22:15	23.581
16	4/29/2014 22:30	23.484
17	4/29/2014 22:45	23.292
18	4/29/2014 23:00	23.196
19	4/29/2014 23:15	23.004
20	4/29/2014 23:30	22.812
21	4/29/2014 23:45	22.525
22	4/30/2014 0:00	22.333
23	4/30/2014 0:15	22.046
24	4/30/2014 0:30	21.855
25	4/30/2014 0:45	21.569
26	4/30/2014 1:00	21.282
27	4/30/2014 1:15	20.996
28	4/30/2014 1:30	20.71
29	4/30/2014 1:45	20.329
30	4/30/2014 2:00	20.043
31	4/30/2014 2:15	19.758
32	4/30/2014 2:30	19.377
33	4/30/2014 2:45	19.092
34	4/30/2014 3:00	18.711
35	4/30/2014 3:15	18.426
36	4/30/2014 3:30	18.14
37	4/30/2014 3:45	17.855
38	4/30/2014 4:00	17.475
39	4/30/2014 4:15	17.189
40	4/30/2014 4:30	16.903
41	4/30/2014 4:45	16.618
42	4/30/2014 5:00	16.332
43	4/30/2014 5:15	16.046
44	4/30/2014 5:30	15.855
45	4/30/2014 5:45	15.569
46	4/30/2014 6:00	15.282
47	4/30/2014 6:15	15.091
48	4/30/2014 6:30	14.804
49	4/30/2014 6:45	14.613
50	4/30/2014 7:00	14.421
51	4/30/2014 7:15	14.23
52	4/30/2014 7:30	14.134
53	4/30/2014 7:45	14.038
54	4/30/2014 8:00	13.942
55	4/30/2014 8:15	14.038
56	4/30/2014 8:30	14.23
57	4/30/2014 8:45	14.613
58	4/30/2014 9:00	15.091
59	4/30/2014 9:15	15.855
60	4/30/2014 9:30	16.618
61	4/30/2014 9:45	17.189
62	4/30/2014 10:00	17.76
63	4/30/2014 10:15	18.14
64	4/30/2014 10:30	18.901
65	4/30/2014 10:45	24.158
66	4/30/2014 11:00	30.154
67	4/30/2014 11:15	31.88
68	4/30/2014 11:30	34.691
69	4/30/2014 11:45	37.384
70	4/30/2014 12:00	39.389
71	4/30/2014 12:15	35.435
72	4/30/2014 12:30	34.374
73	4/30/2014 12:45	34.585
74	4/30/2014 13:00	36.295
75	4/30/2014 13:15	45.956
76	4/30/2014 13:30	28.456
77	4/30/2014 13:45	27.173
78	4/30/2014 14:00	29.552
79	4/30/2014 14:15	10.357
80	4/30/2014 14:30	10.063
81	4/30/2014 14:45	10.063
82	4/30/2014 15:00	9.965
83	4/30/2014 15:15	9.965
84	4/30/2014 15:30	9.866
85	4/30/2014 15:45	9.866
86	4/30/2014 16:00	9.965
87	4/30/2014 16:15	9.866
88	4/30/2014 16:30	9.571
89	4/30/2014 16:45	9.472
90	4/30/2014 17:00	9.275
91	4/30/2014 17:15	9.176
92	4/30/2014 17:30	9.176
93	4/30/2014 17:45	9.077
94	4/30/2014 18:00	8.978
95	4/30/2014 18:15	8.978
96	4/30/2014 18:30	8.978
97	4/30/2014 18:45	8.978
98	4/30/2014 19:00	8.978
99	4/30/2014 19:15	8.978
100	4/30/2014 19:30	8.978
101	4/30/2014 19:45	8.978
102	4/30/2014 20:00	9.077
103	4/30/2014 20:15	8.978
104	4/30/2014 20:30	8.978
105	4/30/2014 20:45	8.978
106	4/30/2014 21:00	8.978
107	4/30/2014 21:15	8.978
108	4/30/2014 21:30	8.978
109	4/30/2014 21:45	9.077
110	4/30/2014 22:00	9.077
111	4/30/2014 22:15	9.077
112	4/30/2014 22:30	9.077
113	4/30/2014 22:45	9.077
114	4/30/2014 23:00	9.077
115	4/30/2014 23:15	9.077
116	4/30/2014 23:30	9.077
117	4/30/2014 23:45	9.077
118	5/1/2014 0:00	9.077
119	5/1/2014 0:15	9.176
120	5/1/2014 0:30	9.176
121	5/1/2014 0:45	9.176
122	5/1/2014 1:00	9.275
123	5/1/2014 1:15	9.571
124	5/1/2014 1:30	9.571
125	5/1/2014 1:45	9.571
126	5/1/2014 2:00	9.571
127	5/1/2014 2:15	9.669
128	5/1/2014 2:30	9.669
129	5/1/2014 2:45	9.669
130	5/1/2014 3:00	9.571
131	5/1/2014 3:15	9.669
132	5/1/2014 3:30	9.571
133	5/1/2014 3:45	9.571
134	5/1/2014 4:00	9.571
135	5/1/2014 4:15	9.571
136	5/1/2014 4:30	9.571
137	5/1/2014 4:45	9.571
138	5/1/2014 5:00	9.669
139	5/1/2014 5:15	9.866
140	5/1/2014 5:30	9.965
141	5/1/2014 5:45	9.965
142	5/1/2014 6:00	9.965
143	5/1/2014 6:15	9.965
144	5/1/2014 6:30	9.866
145	5/1/2014 6:45	9.866
146	5/1/2014 7:00	9.866
147	5/1/2014 7:15	9.866
148	5/1/2014 7:30	9.866
149	5/1/2014 7:45	9.866
150	5/1/2014 8:00	9.866
151	5/1/2014 8:15	9.866
152	5/1/2014 8:30	9.768
153	5/1/2014 8:45	9.669
154	5/1/2014 9:00	9.669
155	5/1/2014 9:15	9.866
156	5/1/2014 9:30	9.965
157	5/1/2014 9:45	9.965
158	5/1/2014 10:00	9.965
159	5/1/2014 10:15	9.965
160	5/1/2014 10:30	9.965
161	5/1/2014 10:45	9.965
162	5/1/2014 11:00	9.965
163	5/1/2014 11:15	9.965
164	5/1/2014 11:30	9.965
165	5/1/2014 11:45	9.965
166	5/1/2014 12:00	9.866
167	5/1/2014 12:15	10.063
168	5/1/2014 12:30	10.161
169	5/1/2014 12:45	10.063
170	5/1/2014 13:00	10.161
171	5/1/2014 13:15	10.161
172	5/1/2014 13:30	10.161
173	5/1/2014 13:45	10.553
174	5/1/2014 14:00	10.259
175	5/1/2014 14:15	10.259
176	5/1/2014 14:30	10.357
177	5/1/2014 14:45	10.357
178	5/1/2014 15:00	10.357
179	5/1/2014 15:15	10.259
180	5/1/2014 15:30	10.161
181	5/1/2014 15:45	10.161
182	5/1/2014 16:00	10.063
183	5/1/2014 16:15	10.063
184	5/1/2014 16:30	10.161
185	5/1/2014 16:45	10.063
186	5/1/2014 17:00	9.866
187	5/1/2014 17:15	9.669
188	5/1/2014 17:30	9.669
189	5/1/2014 17:45	9.669
190	5/1/2014 18:00	9.669
191	5/1/2014 18:15	9.669
192	5/1/2014 18:30	9.768
193	5/1/2014 18:45	9.669
194	5/1/2014 19:00	9.768
195	5/1/2014 19:15	9.768
196	5/1/2014 19:30	9.768
197	5/1/2014 19:45	9.768
198	5/1/2014 20:00	9.866
199	5/1/2014 20:15	9.866
200	5/1/2014 20:30	9.768
201	5/1/2014 20:45	9.768
202	5/1/2014 21:00	9.768
203	5/1/2014 21:15	9.669
204	5/1/2014 21:30	9.768
205	5/1/2014 21:45	9.768
206	5/1/2014 22:00	9.768
207	5/1/2014 22:15	9.669
208	5/1/2014 22:30	9.571
209	5/1/2014 22:45	9.472
210	5/1/2014 23:00	9.571
211	5/1/2014 23:15	9.571
212	5/1/2014 23:30	9.669
213	5/1/2014 23:45	9.669
214	5/2/2014 0:00	9.669
215	5/2/2014 0:15	9.768
216	5/2/2014 0:30	9.669
217	5/2/2014 0:45	9.669
218	5/2/2014 1:00	9.571
219	5/2/2014 1:15	9.571
220	5/2/2014 1:30	9.472
221	5/2/2014 1:45	9.571
222	5/2/2014 2:00	9.669
223	5/2/2014 2:15	9.669
224	5/2/2014 2:30	9.768
225	5/2/2014 2:45	9.768
226	5/2/2014 3:00	9.768
227	5/2/2014 3:15	9.768
228	5/2/2014 3:30	9.768
229	5/2/2014 3:45	9.768
230	5/2/2014 4:00	9.768
231	5/2/2014 4:15	9.768
232	5/2/2014 4:30	9.768
233	5/2/2014 4:45	9.768
234	5/2/2014 5:00	9.768
235	5/2/2014 5:15	9.768
236	5/2/2014 5:30	9.965
237	5/2/2014 5:45	10.063
238	5/2/2014 6:00	9.965
239	5/2/2014 6:15	9.965
240	5/2/2014 6:30	10.063
241	5/2/2014 6:45	10.063
242	5/2/2014 7:00	10.063
243	5/2/2014 7:15	10.063
244	5/2/2014 7:30	10.063
245	5/2/2014 7:45	10.063
246	5/2/2014 8:00	10.063
247	5/2/2014 8:15	10.063
248	5/2/2014 8:30	10.063
249	5/2/2014 8:45	10.063
250	5/2/2014 9:00	10.161
251	5/2/2014 9:15	10.063
252	5/2/2014 9:30	10.063
253	5/2/2014 9:45	10.063
254	5/2/2014 10:00	10.063
255	5/2/2014 10:15	10.259
256	5/2/2014 10:30	10.063
257	5/2/2014 10:45	10.063
258	5/2/2014 11:00	10.063
259	5/2/2014 11:15	10.063
260	5/2/2014 11:30	10.161
261	5/2/2014 11:45	10.161
262	5/2/2014 12:00	10.357
263	5/2/2014 12:15	10.259
264	5/2/2014 12:30	10.161
265	5/2/2014 12:45	10.259
266	5/2/2014 13:00	10.259
267	5/2/2014 13:15	10.259
268	5/2/2014 13:30	10.357
269	5/2/2014 13:45	10.357
270	5/2/2014 14:00	10.357
271	5/2/2014 14:15	10.259
272	5/2/2014 14:30	10.259
273	5/2/2014 14:45	10.259
274	5/2/2014 15:00	10.357
275	5/2/2014 15:15	10.455
276	5/2/2014 15:30	10.455
277	5/2/2014 15:45	10.455
278	5/2/2014 16:00	10.455
279	5/2/2014 16:15	10.455
280	5/2/2014 16:30	10.455
281	5/2/2014 16:45	10.455
282	5/2/2014 17:00	10.357
283	5/2/2014 17:15	10.357
284	5/2/2014 17:30	10.063
285	5/2/2014 17:45	9.669
286	5/2/2014 18:00	9.571
287	5/2/2014 18:15	9.472
288	5/2/2014 18:30	9.373
289	5/2/2014 18:45	9.275
290	5/2/2014 19:00	9.275
291	5/2/2014 19:15	9.176
292	5/2/2014 19:30	9.176
293	5/2/2014 19:45	9.176
294	5/2/2014 20:00	9.176
295	5/2/2014 20:15	9.176
296	5/2/2014 20:30	9.176
297	5/2/2014 20:45	9.176
298	5/2/2014 21:00	9.176
299	5/2/2014 21:15	9.176
300	5/2/2014 21:30	9.176
301	5/2/2014 21:45	9.176
302	5/2/2014 22:00	9.176
303	5/2/2014 22:15	9.275
304	5/2/2014 22:30	9.275
305	5/2/2014 22:45	9.275
306	5/2/2014 23:00	9.275
307	5/2/2014 23:15	9.176
308	5/2/2014 23:30	9.275
309	5/2/2014 23:45	9.275
310	5/3/2014 0:00	9.275
311	5/3/2014 0:15	9.373
312	5/3/2014 0:30	9.373
313	5/3/2014 0:45	9.373
314	5/3/2014 1:00	9.373
315	5/3/2014 1:15	9.373
316	5/3/2014 1:30	9.373
317	5/3/2014 1:45	9.373
318	5/3/2014 2:00	9.373
319	5/3/2014 2:15	9.373
320	5/3/2014 2:30	9.373
321	5/3/2014 2:45	9.472
322	5/3/2014 3:00	9.768
323	5/3/2014 3:15	9.866
324	5/3/2014 3:30	9.866
325	5/3/2014 3:45	9.866
326	5/3/2014 4:00	9.866
327	5/3/2014 4:15	9.866
328	5/3/2014 4:30	9.866
329	5/3/2014 4:45	9.768
330	5/3/2014 5:00	9.866
331	5/3/2014 5:15	9.866
332	5/3/2014 5:30	9.768
333	5/3/2014 5:45	9.768
334	5/3/2014 6:00	9.768
335	5/3/2014 6:15	9.768
336	5/3/2014 6:30	9.768
337	5/3/2014 6:45	9.768
338	5/3/2014 7:00	9.768
339	5/3/2014 7:15	9.669
340	5/3/2014 7:30	9.669
341	5/3/2014 7:45	9.669
342	5/3/2014 8:00	9.669
343	5/3/2014 8:15	9.571
344	5/3/2014 8:30	9.571
345	5/3/2014 8:45	9.571
346	5/3/2014 9:00	9.669
347	5/3/2014 9:15	9.669
348	5/3/2014 9:30	9.571
349	5/3/2014 9:45	9.571
350	5/3/2014 10:00	9.571
351	5/3/2014 10:15	9.472
352	5/3/2014 10:30	9.669
353	5/3/2014 10:45	9.669
354	5/3/2014 11:00	9.669
355	5/3/2014 11:15	9.768
356	5/3/2014 11:30	9.768
357	5/3/2014 11:45	9.669
358	5/3/2014 12:00	9.768
359	5/3/2014 12:15	9.768
360	5/3/2014 12:30	10.063
361	5/3/2014 12:45	10.161
362	5/3/2014 13:00	10.161
363	5/3/2014 13:15	10.161
364	5/3/2014 13:30	10.063
365	5/3/2014 13:45	10.063
366	5/3/2014 14:00	10.063
367	5/3/2014 14:15	10.063
368	5/3/2014 14:30	10.161
369	5/3/2014 14:45	10.161
370	5/3/2014 15:00	10.063
371	5/3/2014 15:15	10.063
372	5/3/2014 15:30	10.161
373	5/3/2014 15:45	10.161
374	5/3/2014 16:00	10.161
375	5/3/2014 16:15	10.161
376	5/3/2014 16:30	10.259
377	5/3/2014 16:45	10.259
378	5/3/2014 17:00	10.161
379	5/3/2014 17:15	10.161
380	5/3/2014 17:30	10.161
381	5/3/2014 17:45	10.161
382	5/3/2014 18:00	10.161
383	5/3/2014 18:15	10.161
384	5/3/2014 18:30	10.063
385	5/3/2014 18:45	9.768
386	5/3/2014 19:00	9.472
387	5/3/2014 19:15	9.373
388	5/3/2014 19:30	9.275
389	5/3/2014 19:45	9.176
390	5/3/2014 20:00	9.275
391	5/3/2014 20:15	9.275
392	5/3/2014 20:30	9.176
393	5/3/2014 20:45	9.176
394	5/3/2014 21:00	9.176
395	5/3/2014 21:15	9.176
396	5/3/2014 21:30	9.176
397	5/3/2014 21:45	9.077
398	5/3/2014 22:00	9.077
399	5/3/2014 22:15	9.077
400	5/3/2014 22:30	9.077
401	5/3/2014 22:45	9.077
402	5/3/2014 23:00	9.077
403	5/3/2014 23:15	9.077
404	5/3/2014 23:30	9.176
405	5/3/2014 23:45	9.176
406	5/4/2014 0:00	9.176
407	5/4/2014 0:15	9.176
408	5/4/2014 0:30	9.176
409	5/4/2014 0:45	9.176
410	5/4/2014 1:00	9.176
411	5/4/2014 1:15	9.275
412	5/4/2014 1:30	9.176
413	5/4/2014 1:45	9.176
414	5/4/2014 2:00	9.176
415	5/4/2014 2:15	9.275
416	5/4/2014 2:30	9.275
417	5/4/2014 2:45	9.275
418	5/4/2014 3:00	9.275
419	5/4/2014 3:15	9.373
420	5/4/2014 3:30	9.669
421	5/4/2014 3:45	9.669
422	5/4/2014 4:00	9.768
423	5/4/2014 4:15	9.768
424	5/4/2014 4:30	9.768
425	5/4/2014 4:45	9.768
426	5/4/2014 5:00	9.768
427	5/4/2014 5:15	9.768
428	5/4/2014 5:30	9.768
429	5/4/2014 5:45	9.768
430	5/4/2014 6:00	9.768
431	5/4/2014 6:15	9.768
432	5/4/2014 6:30	9.768
433	5/4/2014 6:45	9.768
434	5/4/2014 7:00	9.669
435	5/4/2014 7:15	9.669
436	5/4/2014 7:30	9.669
437	5/4/2014 7:45	9.571
438	5/4/2014 8:00	9.571
439	5/4/2014 8:15	9.571
440	5/4/2014 8:30	9.571
441	5/4/2014 8:45	9.571
442	5/4/2014 9:00	9.571
443	5/4/2014 9:15	9.571
444	5/4/2014 9:30	9.571
445	5/4/2014 9:45	9.669
446	5/4/2014 10:00	9.669
447	5/4/2014 10:15	9.669
448	5/4/2014 10:30	9.571
449	5/4/2014 10:45	9.571
450	5/4/2014 11:00	9.669
451	5/4/2014 11:15	9.669
452	5/4/2014 11:30	9.669
453	5/4/2014 11:45	9.669
454	5/4/2014 12:00	9.669
455	5/4/2014 12:15	9.669
456	5/4/2014 12:30	9.768
457	5/4/2014 12:45	9.768
458	5/4/2014 13:00	9.768
459	5/4/2014 13:15	9.768
460	5/4/2014 13:30	9.866
461	5/4/2014 13:45	9.866
462	5/4/2014 14:00	9.965
463	5/4/2014 14:15	9.866
464	5/4/2014 14:30	9.965
465	5/4/2014 14:45	9.965
466	5/4/2014 15:00	9.965
467	5/4/2014 15:15	9.965
468	5/4/2014 15:30	9.965
469	5/4/2014 15:45	9.965
470	5/4/2014 16:00	9.965
471	5/4/2014 16:15	9.965
472	5/4/2014 16:30	9.965
473	5/4/2014 16:45	10.063
474	5/4/2014 17:00	10.161
475	5/4/2014 17:15	10.161
476	5/4/2014 17:30	10.161
477	5/4/2014 17:45	10.063
478	5/4/2014 18:00	10.063
479	5/4/2014 18:15	10.063
480	5/4/2014 18:30	10.063
481	5/4/2014 18:45	10.063
482	5/4/2014 19:00	9.965
483	5/4/2014 19:15	9.965
484	5/4/2014 19:30	9.571
485	5/4/2014 19:45	9.373
486	5/4/2014 20:00	9.275
487	5/4/2014 20:15	9.176
488	5/4/2014 20:30	9.176
489	5/4/2014 20:45	9.176
490	5/4/2014 21:00	9.077
491	5/4/2014 21:15	9.077
492	5/4/2014 21:30	9.077
493	5/4/2014 21:45	9.077
494	5/4/2014 22:00	9.077
495	5/4/2014 22:15	9.077
496	5/4/2014 22:30	9.077
497	5/4/2014 22:45	9.077
498	5/4/2014 23:00	9.077
499	5/4/2014 23:15	9.077
500	5/4/2014 23:30	9.077
501	5/4/2014 23:45	9.077
502	5/5/2014 0:00	9.176
503	5/5/2014 0:15	9.176
504	5/5/2014 0:30	9.077
505	5/5/2014 0:45	9.176
506	5/5/2014 1:00	9.176
507	5/5/2014 1:15	9.176
508	5/5/2014 1:30	9.275
509	5/5/2014 1:45	9.275
510	5/5/2014 2:00	9.275
511	5/5/2014 2:15	9.275
512	5/5/2014 2:30	9.275
513	5/5/2014 2:45	9.275
514	5/5/2014 3:00	9.275
515	5/5/2014 3:15	9.373
516	5/5/2014 3:30	9.373
517	5/5/2014 3:45	9.373
518	5/5/2014 4:00	9.275
519	5/5/2014 4:15	9.275
520	5/5/2014 4:30	9.373
521	5/5/2014 4:45	9.373
522	5/5/2014 5:00	9.472
523	5/5/2014 5:15	9.768
524	5/5/2014 5:30	9.768
525	5/5/2014 5:45	9.768
526	5/5/2014 6:00	9.768
527	5/5/2014 6:15	9.768
528	5/5/2014 6:30	9.768
529	5/5/2014 6:45	9.768
530	5/5/2014 7:00	9.768
531	5/5/2014 7:15	9.768
532	5/5/2014 7:30	9.768
533	5/5/2014 7:45	9.768
534	5/5/2014 8:00	9.669
535	5/5/2014 8:15	9.669
536	5/5/2014 8:30	9.669
537	5/5/2014 8:45	9.571
538	5/5/2014 9:00	9.571
539	5/5/2014 9:15	9.571
540	5/5/2014 9:30	9.571
541	5/5/2014 9:45	9.571
542	5/5/2014 10:00	9.571
543	5/5/2014 10:15	9.571
544	5/5/2014 10:30	9.669
545	5/5/2014 10:45	9.768
546	5/5/2014 11:00	9.866
547	5/5/2014 11:15	9.768
548	5/5/2014 11:30	9.768
549	5/5/2014 11:45	9.768
550	5/5/2014 12:00	9.768
551	5/5/2014 12:15	9.866
552	5/5/2014 12:30	9.965
553	5/5/2014 12:45	10.063
554	5/5/2014 13:00	9.965
555	5/5/2014 13:15	10.063
556	5/5/2014 13:30	9.965
557	5/5/2014 13:45	9.866
558	5/5/2014 14:00	9.866
559	5/5/2014 14:15	9.965
560	5/5/2014 14:30	10.063
561	5/5/2014 14:45	10.161
562	5/5/2014 15:00	10.161
563	5/5/2014 15:15	10.063
564	5/5/2014 15:30	10.063
565	5/5/2014 15:45	10.063
566	5/5/2014 16:00	10.063
567	5/5/2014 16:15	10.063
568	5/5/2014 16:30	10.063
569	5/5/2014 16:45	10.063
570	5/5/2014 17:00	10.063
571	5/5/2014 17:15	10.063
572	5/5/2014 17:30	10.063
573	5/5/2014 17:45	10.161
574	5/5/2014 18:00	10.161
575	5/5/2014 18:15	10.161
576	5/5/2014 18:30	10.161
577	5/5/2014 18:45	10.063
578	5/5/2014 19:00	10.063
579	5/5/2014 19:15	10.161
580	5/5/2014 19:30	10.161
581	5/5/2014 19:45	10.063
582	5/5/2014 20:00	10.063
583	5/5/2014 20:15	10.063
584	5/5/2014 20:30	9.965
585	5/5/2014 20:45	9.472
586	5/5/2014 21:00	9.373
587	5/5/2014 21:15	9.571
588	5/5/2014 21:30	9.571
589	5/5/2014 21:45	9.373
590	5/5/2014 22:00	9.176
591	5/5/2014 22:15	9.176
592	5/5/2014 22:30	9.077
593	5/5/2014 22:45	9.077
594	5/5/2014 23:00	9.077
595	5/5/2014 23:15	9.077
596	5/5/2014 23:30	9.077
597	5/5/2014 23:45	9.077
598	5/6/2014 0:00	9.176
599	5/6/2014 0:15	9.275
600	5/6/2014 0:30	9.275
601	5/6/2014 0:45	9.373
602	5/6/2014 1:00	9.373
603	5/6/2014 1:15	9.373
604	5/6/2014 1:30	9.373
605	5/6/2014 1:45	9.275
606	5/6/2014 2:00	9.275
607	5/6/2014 2:15	9.275
608	5/6/2014 2:30	9.275
609	5/6/2014 2:45	9.275
610	5/6/2014 3:00	9.275
611	5/6/2014 3:15	9.275
612	5/6/2014 3:30	9.275
613	5/6/2014 3:45	9.275
614	5/6/2014 4:00	9.275
615	5/6/2014 4:15	9.275
616	5/6/2014 4:30	9.275
617	5/6/2014 4:45	9.275
618	5/6/2014 5:00	9.275
619	5/6/2014 5:15	9.472
620	5/6/2014 5:30	9.472
621	5/6/2014 5:45	9.669
622	5/6/2014 6:00	9.669
623	5/6/2014 6:15	9.768
624	5/6/2014 6:30	9.866
625	5/6/2014 6:45	9.866
626	5/6/2014 7:00	9.866
627	5/6/2014 7:15	9.768
628	5/6/2014 7:30	9.768
629	5/6/2014 7:45	9.768
630	5/6/2014 8:00	9.866
631	5/6/2014 8:15	9.768
632	5/6/2014 8:30	9.768
633	5/6/2014 8:45	9.768
634	5/6/2014 9:00	9.768
635	5/6/2014 9:15	9.768
636	5/6/2014 9:30	9.768
637	5/6/2014 9:45	9.768
638	5/6/2014 10:00	9.768
639	5/6/2014 10:15	9.866
640	5/6/2014 10:30	9.866
641	5/6/2014 10:45	10.063
642	5/6/2014 11:00	10.161
643	5/6/2014 11:15	10.161
644	5/6/2014 11:30	10.063
645	5/6/2014 11:45	10.161
646	5/6/2014 12:00	10.161
647	5/6/2014 12:15	10.161
648	5/6/2014 12:30	10.161
649	5/6/2014 12:45	10.161
650	5/6/2014 13:00	10.259
651	5/6/2014 13:15	10.259
652	5/6/2014 13:30	10.357
653	5/6/2014 13:45	10.357
654	5/6/2014 14:00	10.553
655	5/6/2014 14:15	10.651
656	5/6/2014 14:30	10.553
657	5/6/2014 14:45	10.455
658	5/6/2014 15:00	10.357
659	5/6/2014 15:15	10.455
660	5/6/2014 15:30	10.455
661	5/6/2014 15:45	10.357
662	5/6/2014 16:00	10.357
663	5/6/2014 16:15	10.553
664	5/6/2014 16:30	10.553
665	5/6/2014 16:45	10.553
666	5/6/2014 17:00	10.455
667	5/6/2014 17:15	10.357
668	5/6/2014 17:30	10.357
669	5/6/2014 17:45	10.259
670	5/6/2014 18:00	10.259
671	5/6/2014 18:15	10.259
672	5/6/2014 18:30	10.259
673	5/6/2014 18:45	10.259
674	5/6/2014 19:00	10.161
675	5/6/2014 19:15	10.161
676	5/6/2014 19:30	10.161
677	5/6/2014 19:45	10.161
678	5/6/2014 20:00	10.161
679	5/6/2014 20:15	10.259
680	5/6/2014 20:30	10.161
681	5/6/2014 20:45	10.161
682	5/6/2014 21:00	10.161
683	5/6/2014 21:15	10.161
684	5/6/2014 21:30	10.063
685	5/6/2014 21:45	10.063
686	5/6/2014 22:00	9.965
687	5/6/2014 22:15	9.866
688	5/6/2014 22:30	9.965
689	5/6/2014 22:45	9.866
690	5/6/2014 23:00	9.866
691	5/6/2014 23:15	9.669
692	5/6/2014 23:30	9.669
693	5/6/2014 23:45	9.768
694	5/7/2014 0:00	9.571
695	5/7/2014 0:15	9.472
696	5/7/2014 0:30	9.472
697	5/7/2014 0:45	9.472
698	5/7/2014 1:00	9.571
699	5/7/2014 1:15	9.472
700	5/7/2014 1:30	9.571
701	5/7/2014 1:45	9.571
702	5/7/2014 2:00	9.571
703	5/7/2014 2:15	9.571
704	5/7/2014 2:30	9.571
705	5/7/2014 2:45	9.571
706	5/7/2014 3:00	9.571
707	5/7/2014 3:15	9.472
708	5/7/2014 3:30	9.472
709	5/7/2014 3:45	9.472
710	5/7/2014 4:00	9.472
711	5/7/2014 4:15	9.472
712	5/7/2014 4:30	9.472
713	5/7/2014 4:45	9.472
714	5/7/2014 5:00	9.669
715	5/7/2014 5:15	9.669
716	5/7/2014 5:30	9.571
717	5/7/2014 5:45	9.571
718	5/7/2014 6:00	9.571
719	5/7/2014 6:15	9.669
720	5/7/2014 6:30	9.866
721	5/7/2014 6:45	9.866
722	5/7/2014 7:00	9.866
723	5/7/2014 7:15	9.965
724	5/7/2014 7:30	9.866
725	5/7/2014 7:45	9.768
726	5/7/2014 8:00	9.768
727	5/7/2014 8:15	9.768
728	5/7/2014 8:30	9.965
729	5/7/2014 8:45	10.063
730	5/7/2014 9:00	10.063
731	5/7/2014 9:15	10.063
732	5/7/2014 9:30	9.965
733	5/7/2014 9:45	9.965
734	5/7/2014 10:00	9.965
735	5/7/2014 10:15	9.866
736	5/7/2014 10:30	9.965
737	5/7/2014 10:45	9.866
738	5/7/2014 11:00	10.063
739	5/7/2014 11:15	10.161
740	5/7/2014 11:30	10.161
741	5/7/2014 11:45	10.259
742	5/7/2014 12:00	10.357
743	5/7/2014 12:15	10.455
744	5/7/2014 12:30	10.455
745	5/7/2014 12:45	10.455
746	5/7/2014 13:00	10.455
747	5/7/2014 13:15	10.455
748	5/7/2014 13:30	10.455
749	5/7/2014 13:45	10.259
750	5/7/2014 14:00	10.259
751	5/7/2014 14:15	10.651
752	5/7/2014 14:30	10.455
753	5/7/2014 14:45	10.553
754	5/7/2014 15:00	10.553
755	5/7/2014 15:15	10.651
756	5/7/2014 15:30	10.651
757	5/7/2014 15:45	10.357
758	5/7/2014 16:00	10.553
759	5/7/2014 16:15	10.553
760	5/7/2014 16:30	10.455
761	5/7/2014 16:45	10.455
762	5/7/2014 17:00	10.553
763	5/7/2014 17:15	10.455
764	5/7/2014 17:30	10.455
765	5/7/2014 17:45	10.455
766	5/7/2014 18:00	10.651
767	5/7/2014 18:15	10.651
768	5/7/2014 18:30	10.651
769	5/7/2014 18:45	10.651
770	5/7/2014 19:00	10.651
771	5/7/2014 19:15	10.553
772	5/7/2014 19:30	10.553
773	5/7/2014 19:45	10.553
774	5/7/2014 20:00	10.553
775	5/7/2014 20:15	10.455
776	5/7/2014 20:30	10.455
777	5/7/2014 20:45	10.455
778	5/7/2014 21:00	10.357
779	5/7/2014 21:15	10.259
780	5/7/2014 21:30	10.161
781	5/7/2014 21:45	10.259
782	5/7/2014 22:00	10.357
783	5/7/2014 22:15	10.357
784	5/7/2014 22:30	10.259
785	5/7/2014 22:45	10.259
786	5/7/2014 23:00	10.259
787	5/7/2014 23:15	10.259
788	5/7/2014 23:30	9.965
789	5/7/2014 23:45	9.965
790	5/8/2014 0:00	9.768
791	5/8/2014 0:15	9.669
792	5/8/2014 0:30	9.669
793	5/8/2014 0:45	9.571
794	5/8/2014 1:00	9.669
795	5/8/2014 1:15	9.768
796	5/8/2014 1:30	9.669
797	5/8/2014 1:45	9.571
798	5/8/2014 2:00	9.669
799	5/8/2014 2:15	9.669
800	5/8/2014 2:30	9.768
801	5/8/2014 2:45	9.768
802	5/8/2014 3:00	9.768
803	5/8/2014 3:15	9.669
804	5/8/2014 3:30	9.669
805	5/8/2014 3:45	9.669
806	5/8/2014 4:00	9.669
807	5/8/2014 4:15	9.669
808	5/8/2014 4:30	9.669
809	5/8/2014 4:45	9.669
810	5/8/2014 5:00	9.768
811	5/8/2014 5:15	9.768
812	5/8/2014 5:30	9.669
813	5/8/2014 5:45	9.768
814	5/8/2014 6:00	9.768
815	5/8/2014 6:15	9.768
816	5/8/2014 6:30	9.768
817	5/8/2014 6:45	9.768
818	5/8/2014 7:00	9.768
819	5/8/2014 7:15	9.866
820	5/8/2014 7:30	9.866
821	5/8/2014 7:45	9.965
822	5/8/2014 8:00	9.965
823	5/8/2014 8:15	9.965
824	5/8/2014 8:30	9.965
825	5/8/2014 8:45	9.965
826	5/8/2014 9:00	9.965
827	5/8/2014 9:15	10.063
828	5/8/2014 9:30	10.063
829	5/8/2014 9:45	10.063
830	5/8/2014 10:00	10.063
831	5/8/2014 10:15	10.063
832	5/8/2014 10:30	10.161
833	5/8/2014 10:45	10.063
834	5/8/2014 11:00	10.063
835	5/8/2014 11:15	10.063
836	5/8/2014 11:30	10.063
837	5/8/2014 11:45	10.063
838	5/8/2014 12:00	10.063
839	5/8/2014 12:15	10.063
840	5/8/2014 12:30	10.161
841	5/8/2014 12:45	10.161
842	5/8/2014 13:00	9.965
843	5/8/2014 13:15	9.669
844	5/8/2014 13:30	9.669
845	5/8/2014 13:45	9.768
846	5/8/2014 14:00	10.063
847	5/8/2014 14:15	10.063
848	5/8/2014 14:30	9.965
849	5/8/2014 14:45	9.965
850	5/8/2014 15:00	9.866
851	5/8/2014 15:15	9.866
852	5/8/2014 15:30	9.866
853	5/8/2014 15:45	9.768
854	5/8/2014 16:00	9.768
855	5/8/2014 16:15	9.866
856	5/8/2014 16:30	9.965
857	5/8/2014 16:45	9.965
858	5/8/2014 17:00	9.965
859	5/8/2014 17:15	10.063
860	5/8/2014 17:30	10.161
861	5/8/2014 17:45	10.161
862	5/8/2014 18:00	10.161
863	5/8/2014 18:15	10.063
864	5/8/2014 18:30	10.063
865	5/8/2014 18:45	10.161
866	5/8/2014 19:00	10.259
867	5/8/2014 19:15	10.259
868	5/8/2014 19:30	10.259
869	5/8/2014 19:45	10.161
870	5/8/2014 20:00	10.161
871	5/8/2014 20:15	10.161
872	5/8/2014 20:30	10.259
873	5/8/2014 20:45	10.357
874	5/8/2014 21:00	10.259
875	5/8/2014 21:15	10.259
876	5/8/2014 21:30	10.259
877	5/8/2014 21:45	9.866
878	5/8/2014 22:00	9.669
879	5/8/2014 22:15	9.571
880	5/8/2014 22:30	9.472
881	5/8/2014 22:45	9.571
882	5/8/2014 23:00	9.965
883	5/8/2014 23:15	9.965
884	5/8/2014 23:30	9.965
885	5/8/2014 23:45	9.768
886	5/9/2014 0:00	9.768
887	5/9/2014 0:15	9.768
888	5/9/2014 0:30	9.669
889	5/9/2014 0:45	9.472
890	5/9/2014 1:00	9.472
891	5/9/2014 1:15	9.472
892	5/9/2014 1:30	9.472
893	5/9/2014 1:45	9.373
894	5/9/2014 2:00	9.472
895	5/9/2014 2:15	9.472
896	5/9/2014 2:30	9.472
897	5/9/2014 2:45	9.472
898	5/9/2014 3:00	9.472
899	5/9/2014 3:15	9.472
900	5/9/2014 3:30	9.472
901	5/9/2014 3:45	9.472
902	5/9/2014 4:00	9.571
903	5/9/2014 4:15	9.472
904	5/9/2014 4:30	9.472
905	5/9/2014 4:45	9.472
906	5/9/2014 5:00	9.472
907	5/9/2014 5:15	9.472
908	5/9/2014 5:30	9.472
909	5/9/2014 5:45	9.571
910	5/9/2014 6:00	9.669
911	5/9/2014 6:15	9.669
912	5/9/2014 6:30	9.669
913	5/9/2014 6:45	9.669
914	5/9/2014 7:00	9.866
915	5/9/2014 7:15	9.965
916	5/9/2014 7:30	10.063
917	5/9/2014 7:45	10.063
918	5/9/2014 8:00	10.063
919	5/9/2014 8:15	9.965
920	5/9/2014 8:30	9.965
921	5/9/2014 8:45	9.965
922	5/9/2014 9:00	10.063
923	5/9/2014 9:15	10.063
924	5/9/2014 9:30	10.063